Location: Unspecified
(0.0000°N, 0.0000°E)
Time: 14:00:23
(UTC+00:00)

Kosmos-1092 - Pass Details

Date: 16 December 2023
Orbit: 959 x 1000 km, 82.9° (Epoch: 25 February)

Event Time Altitude Azimuth Distance (km) Brightness Sun altitude
Rises 19:46:31 0° 224° (SW) 3,716 11.2 -25.3°
Reaches altitude 10° 19:51:28 10° 258° (WSW) 2,756 10.3 -26.4°
Maximum altitude 19:53:02 11° 273° (W) 2,682 10.0 -26.7°
Drops below altitude 10° 19:54:36 10° 287° (WNW) 2,748 9.9 -27.1°
Sets 19:59:33 0° 322° (NW) 3,681 10.2 -28.2°
